STARLINK-3219 (49724 NORAD) Tracking and Keplerian Element Data

This shows tracking and keplerian element data for the satellite.

Feedback or suggestion? Click here.




ElementValue
Catalog49724
NameSTARLINK-3219
Epoch Orbit2698
Epoch Day140.91667824
Epoch Year2022
RAAN263.5676
Inclination53.212
Eccentricity0.0002077
Argument of Perigee34.5377
Mean Anonmoly8.3257
Mean Motion15.08861796
Decay Rate-0.00037741
L11 49724U 21115A 22140.91667824 -.00037741 00000+0 -23642-2 0 9990
L22 49724 53.2120 263.5676 0002077 34.5377 8.3257 15.08861796 26982

Live tracking and technical data element details for STARLINK-3219 (NORAD 49724). STARLINK-3219 can be tracked NOW for your location showing map with azimuth and elevation plus other details from your city location.

Track the satellite on the map from your city or location and see movement details for azimuth, elevation, latitude, longitude, range, height, and movement on the map or in text.







IsCatalogInMostPopularTable: catalog: 49724, numindb: 22
Update: records affected: 1



GetName: 49724 STARLINK-3219

Hit Count: updated at: Mon, 23 May 2022 21:43:11 GMT